Weather in Paderborn

Germany     51°43′14″N   8°44′55″E
temp.,
°C
wind,
m/s
gust,
m/s
humid.,
%
clouds,
%
prec.,
mm/h
press.,
hPa
HPBL,
m
6 may, thu
thu623:00+2wsw512895 0.1 1009350
02:000sw389166 0.1 1009176
05:000ssw228888 0.0 100825
08:00+3wsw61197100 0.3 1008930
11:00+3wsw3796100 0.3 1008521
14:00+9wsw456297 0.6 10071504
17:00+10wsw2253100 0.1 10041411
20:00+6sse2386100 0.6 100495
7 may, fri
fri723:00+5e2394100 0.8 1004214
02:00+4w1398100 4.1 1005718
05:00+3w61196100 1.3 1006852
08:00+2wnw38100100 2.3 1010396
11:00+4wnw6990100 1.3 10121071
14:00+6wnw698294 2.4 10141362
17:00+9wnw6106464 0.8 10141854
20:00+7wnw4108190 1.3 1016414
8 may, sat
sat823:00+2sw22935 0.2 101816
02:00+1ssw22943 0.2 101916
05:000s22916 0.0 101912
08:00+5sse1281100 0.0 1019125
11:00+10ssw2456100 0.0 10181208
14:00+14sw3641100 0.0 10152172
17:00+15ssw374899 0.0 10132213
20:00+11sse4963100 0.0 1012268
9 may, sun
sun923:00+11sse51365100 0.1 1011459
02:00+12s51265100 0.1 1010384
05:00+9sse4981100 0.0 1009157
08:00+11se497734 0.0 1008174
11:00+19sse6116134 0.0 1007647
14:00+23sse61056100 0.0 10061241
17:00+23s51057100 0.0 10041529
20:00+19s497156 0.0 1004202
10 may, mon
mon1023:00+15sse3976100 0.0 1005142
02:00+16ssw3774100 0.0 1006149
05:00+16sse4975100 0.0 1006246
08:00+17s51276100 0.1 1007756
11:00+17ssw477371 0.0 1007631
14:00+19wsw5766100 0.2 1008931
17:00+15wnw3684100 0.1 1008352
20:00+12w4799100 8.4 1008376